Fort Knox, KY

9:12 PM EDT on September 25, 2016 (GMT -0400)
Godman Army Air Field

Weather History for KFTK - November, 2012

Change the Weather History Date:

Thursday, November 1, 2012

  Actual Average Record
Temperature  
Mean Temperature 42 °F -  
Max Temperature 56 °F 60 °F 78 °F (2000)
Min Temperature 27 °F 41 °F 27 °F (2012)
Degree Days  
Heating Degree Days 23    
Moisture  
Dew Point 25 °F    
Average Humidity 54    
Maximum Humidity 81    
Minimum Humidity 24    
Precipitation  
Precipitation 0.00 in - - ()
Sea Level Pressure  
Sea Level Pressure 29.92 in    
Wind  
Wind Speed 6 mph (WSW)    
Max Wind Speed 15 mph    
Max Gust Speed 18 mph    
Visibility 10 miles    
Events      
Averages and records for this station are not official NWS values.
T = Trace of Precipitation, MM = Missing Value Source: NWS Daily Summary

Daily Weather History Graph

Daily Weather History Graph

Search for Another Location

Airport or City:

Trip Planner

Search our weather history database for the weather conditions in past years. The results will help you decide how hot, cold, wet, or windy it might be!

Date:

Astronomy

Nov. 01, 2012 Rise Set
Actual Time 8:09 AM EDT 6:44 PM EDT
Civil Twilight 7:42 AM EDT 7:11 PM EDT
Nautical Twilight 7:11 AM EDT 7:42 PM EDT
Astronomical Twilight 6:40 AM EDT 8:13 PM EDT
Moon 8:43 PM EDT (11/1) 10:39 AM EDT (11/1)
Length of Visible Light 11h 29m
Length of Day
10h 34m
Waning Gibbous, 93% of the Moon is Illuminated
Nov 1
Waning Gibbous
Nov 6
Last Quarter
Nov 13
New
Nov 20
First Quarter
Nov 28
Full

Hourly Weather History & Observations

Time (EDT) Temp. Windchill Dew Point Humidity Pressure Visibility Wind Dir Wind Speed Gust Speed Precip Events Conditions
12:55 AM 37.6 °F 34.0 °F 29.7 °F 73% 29.91 in 10.0 mi SW 4.6 mph - N/A   Partly Cloudy
1:55 AM 37.9 °F - 28.9 °F 70% 29.91 in 10.0 mi SW 2.3 mph - N/A   Clear
2:55 AM 33.8 °F 29.6 °F 27.9 °F 79% 29.90 in 10.0 mi SW 4.6 mph - N/A   Clear
3:55 AM 32.9 °F 28.5 °F 26.4 °F 77% 29.90 in 10.0 mi WSW 4.6 mph - N/A   Clear
4:55 AM 29.3 °F 24.3 °F 24.3 °F 81% 29.91 in 10.0 mi WSW 4.6 mph - N/A   Clear
5:55 AM 28.9 °F 21.9 °F 23.7 °F 81% 29.91 in 10.0 mi WSW 6.9 mph - N/A   Clear
6:55 AM 28.8 °F 22.6 °F 23.2 °F 80% 29.93 in 10.0 mi WSW 5.8 mph - N/A   Clear
7:55 AM 27.5 °F 21.1 °F 22.5 °F 81% 29.94 in 10.0 mi WSW 5.8 mph - N/A   Clear
8:55 AM 31.3 °F 25.6 °F 25.2 °F 78% 29.96 in 10.0 mi WSW 5.8 mph - N/A   Clear
9:55 AM 36.7 °F 31.2 °F 26.4 °F 66% 29.96 in 10.0 mi West 6.9 mph - N/A   Mostly Cloudy
10:55 AM 41.7 °F 37.3 °F 26.2 °F 54% 29.97 in 10.0 mi WSW 6.9 mph - N/A   Overcast
11:55 AM 45.3 °F 42.3 °F 24.6 °F 44% 29.98 in 10.0 mi Variable 5.8 mph - N/A   Overcast
12:55 PM 48.2 °F - 22.3 °F 36% 29.97 in 10.0 mi West 12.7 mph - N/A   Mostly Cloudy
1:55 PM 52.2 °F - 23.0 °F 32% 29.95 in 10.0 mi WSW 15.0 mph - N/A   Clear
2:55 PM 54.5 °F - 21.0 °F 27% 29.92 in 10.0 mi West 11.5 mph - N/A   Scattered Clouds
3:55 PM 55.9 °F - 19.9 °F 25% 29.91 in 10.0 mi West 13.8 mph - N/A   Scattered Clouds
4:46 PM 57.2 °F - 21.2 °F 25% 29.89 in 10.0 mi West 9.2 mph - N/A   Clear
4:55 PM 55.9 °F - 19.4 °F 24% 29.91 in 10.0 mi WSW 11.5 mph 18.4 mph N/A   Clear
5:55 PM 55.0 °F - 20.8 °F 26% 29.91 in 10.0 mi WSW 12.7 mph - N/A   Mostly Cloudy
6:55 PM 50.0 °F - 23.4 °F 35% 29.91 in 10.0 mi WSW 8.1 mph - N/A   Scattered Clouds
7:55 PM 48.0 °F - 25.2 °F 41% 29.91 in 10.0 mi WSW 6.9 mph - N/A   Mostly Cloudy
8:55 PM 45.0 °F 42.6 °F 26.2 °F 48% 29.91 in 10.0 mi WSW 4.6 mph - N/A   Partly Cloudy
9:55 PM 44.1 °F 41.5 °F 29.3 °F 56% 29.91 in 10.0 mi WSW 4.6 mph - N/A   Mostly Cloudy
10:55 PM 44.6 °F 41.4 °F 28.6 °F 53% 29.91 in 10.0 mi SW 5.8 mph - N/A   Mostly Cloudy
11:55 PM 46.2 °F 45.0 °F 28.8 °F 51% 29.90 in 10.0 mi SW 3.5 mph - N/A   Overcast